Location: Newark
(23.1300°N, 73.6109°E)
Time: 23:04:49
(UTC+00:00)

NOAA 18 - Pass Details

Date: 17 June 2021
Orbit: 840 x 861 km, 99.0° (Epoch: 27 July)

Event Time Altitude Azimuth Distance (km) Brightness Sun altitude
Exits shadow 17:37:53 19° 289° (WNW) 1,899 7.3 -38.7°
Drops below altitude 10° 17:40:22 10° 313° (NW) 2,485 8.3 -39.0°
Sets 17:43:15 0° 328° (NNW) 3,427 9.3 -39.3°
